• Em Portugal
  • Lista de países
  • Para 7 dias
  • Temperatura da água
  • Mapas de satélite
  • Mapa do tempo
  • Widgets de tempo
  • user-avatar
    Iniciar Sessão

    Previsão horária em Pekaninko

    Hoje, 24 Junho, Domingo

    Tempo Temperatura Precipitação Vento Pressão Humidade
    00:00 +12°C° 0,1 mm 4 m/s 759 mmHg 88%
    01:00 +11°C° 0 mm 4 m/s 759 mmHg 91%
    02:00 +11°C° 0 mm 4 m/s 759 mmHg 91%
    03:00 +12°C° 0 mm 4 m/s 759 mmHg 92%
    04:00 +12°C° 0 mm 4 m/s 759 mmHg 92%
    05:00 +13°C° 0 mm 5 m/s 759 mmHg 87%
    06:00 +14°C° 0 mm 5 m/s 759 mmHg 83%
    07:00 +15°C° 0 mm 5 m/s 759 mmHg 76%
    08:00 +16°C° 0,2 mm 5 m/s 759 mmHg 73%
    09:00 +17°C° 0,2 mm 5 m/s 759 mmHg 71%
    10:00 +17°C° 0,2 mm 5 m/s 759 mmHg 68%
    11:00 +19°C° 0,3 mm 5 m/s 759 mmHg 66%
    12:00 +19°C° 0,3 mm 5 m/s 759 mmHg 65%
    13:00 +19°C° 0,3 mm 5 m/s 760 mmHg 64%
    14:00 +19°C° 0,3 mm 5 m/s 759 mmHg 65%
    15:00 +19°C° 0,3 mm 5 m/s 759 mmHg 67%
    16:00 +19°C° 0,3 mm 5 m/s 759 mmHg 68%
    17:00 +18°C° 0,2 mm 4 m/s 759 mmHg 72%
    18:00 +17°C° 0,2 mm 4 m/s 759 mmHg 75%
    19:00 +17°C° 0,2 mm 4 m/s 759 mmHg 78%
    20:00 +14°C° 0,1 mm 3 m/s 760 mmHg 83%
    21:00 +13°C° 0,1 mm 3 m/s 760 mmHg 87%
    22:00 +13°C° 0,1 mm 2 m/s 760 mmHg 92%
    23:00 +13°C° 0,1 mm 2 m/s 760 mmHg 92%

    Amanhã, 25 Junho, Segunda-feira

    Tempo Temperatura Precipitação Vento Pressão Humidade
    00:00 +11°C° 0,1 mm 3 m/s 760 mmHg 93%
    01:00 +11°C° 0,1 mm 3 m/s 760 mmHg 93%
    02:00 +11°C° 0,1 mm 3 m/s 760 mmHg 94%
    03:00 +11°C° 0,1 mm 3 m/s 760 mmHg 95%
    04:00 +10°C° 0,1 mm 3 m/s 760 mmHg 96%
    05:00 +12°C° 0,1 mm 3 m/s 760 mmHg 91%
    06:00 +14°C° 0,1 mm 3 m/s 760 mmHg 86%
    07:00 +15°C° 0,1 mm 4 m/s 760 mmHg 82%
    08:00 +18°C° 0,2 mm 4 m/s 761 mmHg 76%
    09:00 +19°C° 0,2 mm 4 m/s 761 mmHg 71%
    10:00 +20°C° 0,2 mm 4 m/s 761 mmHg 66%
    11:00 +21°C° 0,2 mm 4 m/s 761 mmHg 61%
    12:00 +22°C° 0,2 mm 5 m/s 761 mmHg 56%
    13:00 +22°C° 0,2 mm 5 m/s 761 mmHg 51%
    14:00 +22°C° 0 mm 5 m/s 761 mmHg 50%
    15:00 +22°C° 0 mm 5 m/s 761 mmHg 49%
    16:00 +22°C° 0 mm 5 m/s 761 mmHg 48%
    17:00 +21°C° 0 mm 4 m/s 761 mmHg 54%
    18:00 +20°C° 0 mm 4 m/s 761 mmHg 59%
    19:00 +19°C° 0 mm 4 m/s 762 mmHg 65%
    20:00 +18°C° 0 mm 4 m/s 762 mmHg 71%
    21:00 +16°C° 0 mm 3 m/s 762 mmHg 78%
    22:00 +14°C° 0 mm 3 m/s 762 mmHg 85%
    23:00 +14°C° 0 mm 3 m/s 762 mmHg 84%

    Depois de amanhã, 26 Junho, Terça-feira

    Tempo Temperatura Precipitação Vento Pressão Humidade
    00:00 +16°C° 0 mm 3 m/s 762 mmHg 83%
    01:00 +16°C° 0 mm 3 m/s 762 mmHg 83%
    02:00 +16°C° 0 mm 3 m/s 762 mmHg 82%
    03:00 +16°C° 0 mm 3 m/s 762 mmHg 81%
    04:00 +16°C° 0 mm 3 m/s 762 mmHg 81%
    05:00 +17°C° 0 mm 3 m/s 762 mmHg 78%
    06:00 +18°C° 0 mm 3 m/s 763 mmHg 75%
    07:00 +18°C° 0 mm 4 m/s 763 mmHg 72%
    08:00 +19°C° 0 mm 4 m/s 763 mmHg 67%
    09:00 +20°C° 0 mm 4 m/s 763 mmHg 62%
    10:00 +21°C° 0 mm 4 m/s 763 mmHg 57%
    11:00 +22°C° 0 mm 5 m/s 763 mmHg 54%
    12:00 +23°C° 0 mm 5 m/s 763 mmHg 50%
    13:00 +23°C° 0 mm 5 m/s 763 mmHg 47%
    14:00 +23°C° 0 mm 5 m/s 763 mmHg 49%
    15:00 +22°C° 0 mm 5 m/s 763 mmHg 50%
    16:00 +22°C° 0 mm 5 m/s 763 mmHg 52%
    17:00 +21°C° 0 mm 5 m/s 764 mmHg 57%
    18:00 +20°C° 0 mm 4 m/s 764 mmHg 62%
    19:00 +18°C° 0 mm 4 m/s 764 mmHg 67%
    20:00 +17°C° 0 mm 3 m/s 764 mmHg 74%
    21:00 +14°C° 0 mm 3 m/s 764 mmHg 81%
    22:00 +13°C° 0 mm 3 m/s 765 mmHg 89%
    23:00 +13°C° 0 mm 2 m/s 765 mmHg 90%

    27 Junho, Quarta-feira

    Tempo Temperatura Precipitação Vento Pressão Humidade
    00:00 +13°C° 0 mm 2 m/s 765 mmHg 91%
    01:00 +13°C° 0 mm 2 m/s 765 mmHg 92%
    02:00 +13°C° 0 mm 2 m/s 765 mmHg 92%
    03:00 +12°C° 0 mm 3 m/s 765 mmHg 92%
    04:00 +12°C° 0 mm 3 m/s 765 mmHg 93%
    05:00 +14°C° 0 mm 4 m/s 765 mmHg 85%
    06:00 +17°C° 0 mm 4 m/s 765 mmHg 77%
    07:00 +19°C° 0 mm 5 m/s 765 mmHg 68%
    08:00 +20°C° 0 mm 5 m/s 765 mmHg 64%
    09:00 +21°C° 0 mm 6 m/s 765 mmHg 60%
    10:00 +22°C° 0 mm 6 m/s 765 mmHg 56%
    11:00 +22°C° 0,1 mm 6 m/s 765 mmHg 56%
    12:00 +23°C° 0,1 mm 7 m/s 765 mmHg 55%
    13:00 +23°C° 0,1 mm 7 m/s 765 mmHg 55%
    14:00 +23°C° 0,1 mm 7 m/s 765 mmHg 55%
    15:00 +23°C° 0,1 mm 7 m/s 765 mmHg 55%
    16:00 +23°C° 0,1 mm 7 m/s 765 mmHg 55%
    17:00 +22°C° 0,1 mm 7 m/s 765 mmHg 60%
    18:00 +21°C° 0,1 mm 6 m/s 765 mmHg 64%
    19:00 +20°C° 0,1 mm 6 m/s 765 mmHg 69%
    20:00 +19°C° 0 mm 5 m/s 765 mmHg 76%
    21:00 +16°C° 0 mm 5 m/s 765 mmHg 82%
    22:00 +15°C° 0 mm 5 m/s 765 mmHg 89%
    23:00 +15°C° 0 mm 4 m/s 765 mmHg 91%

    28 Junho, Quinta-feira

    Tempo Temperatura Precipitação Vento Pressão Humidade
    00:00 +14°C° 0 mm 4 m/s 764 mmHg 94%
    01:00 +14°C° 0 mm 4 m/s 764 mmHg 97%
    02:00 +14°C° 0 mm 4 m/s 764 mmHg 97%
    03:00 +14°C° 0 mm 4 m/s 764 mmHg 97%
    04:00 +14°C° 0 mm 4 m/s 764 mmHg 97%
    05:00 +17°C° 0 mm 4 m/s 763 mmHg 91%
    06:00 +17°C° 0 mm 5 m/s 763 mmHg 85%
    07:00 +20°C° 0 mm 5 m/s 763 mmHg 78%
    08:00 +21°C° 0 mm 6 m/s 762 mmHg 72%
    09:00 +23°C° 0 mm 6 m/s 762 mmHg 66%
    10:00 +24°C° 0 mm 7 m/s 762 mmHg 59%
    11:00 +26°C° 0 mm 7 m/s 761 mmHg 56%
    12:00 +27°C° 0 mm 8 m/s 760 mmHg 53%
    13:00 +28°C° 0 mm 8 m/s 760 mmHg 49%
    14:00 +28°C° 0 mm 8 m/s 759 mmHg 50%
    15:00 +27°C° 0 mm 8 m/s 759 mmHg 51%
    16:00 +27°C° 0 mm 8 m/s 758 mmHg 52%
    17:00 +26°C° 0 mm 8 m/s 758 mmHg 57%
    18:00 +24°C° 0 mm 8 m/s 758 mmHg 61%
    19:00 +22°C° 0 mm 7 m/s 757 mmHg 66%
    20:00 +22°C° 0 mm 7 m/s 757 mmHg 69%
    21:00 +21°C° 0 mm 7 m/s 757 mmHg 72%
    22:00 +20°C° 0 mm 7 m/s 757 mmHg 76%
    23:00 +20°C° 0,1 mm 7 m/s 756 mmHg 78%

    29 Junho, Sexta-feira

    Tempo Temperatura Precipitação Vento Pressão Humidade
    00:00 +18°C° 0,1 mm 7 m/s 755 mmHg 80%
    01:00 +19°C° 0,1 mm 6 m/s 755 mmHg 83%
    02:00 +19°C° 0,4 mm 6 m/s 755 mmHg 86%
    03:00 +17°C° 0,4 mm 6 m/s 754 mmHg 90%
    04:00 +17°C° 0,4 mm 6 m/s 754 mmHg 93%
    05:00 +17°C° 0,5 mm 6 m/s 754 mmHg 93%
    06:00 +17°C° 0,5 mm 6 m/s 753 mmHg 93%
    07:00 +17°C° 0,5 mm 6 m/s 753 mmHg 93%
    08:00 +17°C° 0,4 mm 6 m/s 753 mmHg 93%
    09:00 +17°C° 0,4 mm 6 m/s 753 mmHg 92%
    10:00 +17°C° 0,4 mm 6 m/s 753 mmHg 92%
    11:00 +17°C° 1 mm 5 m/s 753 mmHg 93%
    12:00 +17°C° 1 mm 5 m/s 753 mmHg 93%
    13:00 +17°C° 1 mm 5 m/s 753 mmHg 94%
    14:00 +17°C° 0,6 mm 5 m/s 753 mmHg 94%
    15:00 +17°C° 0,6 mm 5 m/s 753 mmHg 94%
    16:00 +17°C° 0,6 mm 5 m/s 753 mmHg 94%
    17:00 +17°C° 0,1 mm 5 m/s 753 mmHg 94%
    18:00 +17°C° 0,1 mm 5 m/s 753 mmHg 95%
    19:00 +16°C° 0,1 mm 5 m/s 753 mmHg 95%
    20:00 +17°C° 0 mm 4 m/s 753 mmHg 95%
    21:00 +17°C° 0 mm 4 m/s 753 mmHg 96%
    22:00 +17°C° 0 mm 4 m/s 753 mmHg 96%
    23:00 +16°C° 0 mm 5 m/s 753 mmHg 95%
    Mostrar mais